| time (UTC) | temp F | wind direction | speed knots | gust knots | rain 1hr in | rain 24hr in | rain mn in | humidity % | barometer mb |
| 20260504215015 | 63 | 290 | 4.3 | 9.6 | 0.01 | 0.02 | 0.02 | 46 | 1002.7 |
| 20260504214520 | 63 | 291 | 4.3 | 9.6 | 0.01 | 0.02 | 0.02 | 46 | 1002.8 |
| 20260504214017 | 63 | 313 | 5.2 | 10.4 | 0.01 | 0.02 | 0.02 | 45 | 1002.9 |
| 20260504213514 | 63 | 284 | 3.5 | 7.8 | 0.01 | 0.02 | 0.02 | 48 | 1003.0 |
| 20260504212514 | 63 | 309 | 5.2 | 7.8 | 0.01 | 0.02 | 0.02 | 47 | 1002.8 |
| 20260504212013 | 62 | 297 | 3.5 | 7.8 | 0.01 | 0.02 | 0.02 | 51 | 1003.0 |
| 20260504211523 | 62 | 302 | 4.3 | 7.8 | 0.01 | 0.02 | 0.02 | 51 | 1002.8 |
| 20260504211013 | 60 | 242 | 1.7 | 12.2 | 0.01 | 0.02 | 0.02 | 46 | 1002.9 |
| 20260504210513 | 59 | 198 | 3.5 | 12.2 | 0.01 | 0.02 | 0.02 | 48 | 1003.0 |
| 20260504210013 | 59 | 150 | 4.3 | 13.0 | 0.00 | 0.01 | 0.01 | 55 | 1003.4 |
| 20260504205514 | 60 | 193 | 7.0 | 20.9 | 0.00 | 0.01 | 0.01 | 53 | 1003.8 |
| 20260504205010 | 62 | 221 | 10.4 | 20.9 | 0.00 | 0.01 | 0.01 | 48 | 1003.8 |
| 20260504204516 | 63 | 277 | 3.5 | 7.8 | 0.00 | 0.01 | 0.01 | 44 | 1003.7 |
| 20260504204009 | 63 | 293 | 3.5 | 7.0 | 0.00 | 0.01 | 0.01 | 42 | 1003.6 |
| 20260504203511 | 63 | 326 | 1.7 | 7.0 | 0.00 | 0.01 | 0.01 | 44 | 1003.5 |
| 20260504202508 | 63 | 35 | 4.3 | 7.0 | 0.00 | 0.01 | 0.01 | 42 | 1003.5 |
| 20260504202008 | 63 | 355 | 3.5 | 9.6 | 0.00 | 0.01 | 0.01 | 44 | 1003.6 |
| 20260504201507 | 63 | 59 | 2.6 | 12.2 | 0.00 | 0.01 | 0.01 | 45 | 1003.5 |
| 20260504201007 | 63 | 74 | 6.1 | 12.2 | 0.00 | 0.01 | 0.01 | 45 | 1003.5 |
| 20260504200506 | 63 | 40 | 2.6 | 8.7 | 0.01 | 0.01 | 0.01 | 45 | 1003.6 |
| 20260504200006 | 63 | 38 | 2.6 | 15.6 | 0.01 | 0.01 | 0.01 | 43 | 1003.7 |
| 20260504195504 | 63 | 26 | 7.0 | 16.5 | 0.01 | 0.01 | 0.01 | 41 | 1003.7 |
| 20260504195003 | 63 | 78 | 8.7 | 16.5 | 0.01 | 0.01 | 0.01 | 41 | 1003.5 |
| 20260504194502 | 64 | 30 | 5.2 | 12.2 | 0.01 | 0.01 | 0.01 | 43 | 1003.3 |
| 20260504194001 | 64 | 360 | 7.8 | 20.9 | 0.01 | 0.01 | 0.01 | 41 | 1003.3 |
| 20260504193600 | 64 | 71 | 2.6 | 7.8 | 0.01 | 0.01 | 0.01 | 43 | 1002.9 |
| 20260504192559 | 65 | 19 | 2.6 | 9.6 | 0.01 | 0.01 | 0.01 | 42 | 1002.7 |
| 20260504192104 | 65 | 33 | 0.9 | 9.6 | 0.01 | 0.01 | 0.01 | 43 | 1002.3 |
| 20260504191604 | 65 | 24 | 2.6 | 7.8 | 0.01 | 0.01 | 0.01 | 45 | 1002.3 |
| 20260504191057 | 65 | 89 | 2.6 | 8.7 | 0.01 | 0.01 | 0.01 | 41 | 1002.1 |
| 20260504190556 | 65 | 13 | 3.5 | 18.2 | 0.00 | 0.00 | 0.00 | 38 | 1002.1 |
| 20260504190114 | 67 | 355 | 8.7 | 18.2 | 0.00 | 0.00 | 0.00 | 34 | 1001.9 |
| 20260504185558 | 67 | 43 | 3.5 | 13.9 | 0.00 | 0.00 | 0.00 | 29 | 1001.8 |
| 20260504185053 | 68 | 27 | 5.2 | 20.0 | 0.00 | 0.00 | 0.00 | 30 | 1001.6 |
| 20260504184611 | 69 | 36 | 9.6 | 20.0 | 0.00 | 0.00 | 0.00 | 28 | 1001.7 |
| 20260504184050 | 71 | 39 | 6.1 | 13.9 | 0.00 | 0.00 | 0.00 | 26 | 1001.7 |
| 20260504183550 | 72 | 347 | 2.6 | 7.8 | 0.00 | 0.00 | 0.00 | 24 | 1001.7 |
| 20260504182548 | 72 | 338 | 2.6 | 5.2 | 0.00 | 0.00 | 0.00 | 23 | 1001.5 |
| 20260504182050 | 72 | 309 | 2.6 | 8.7 | 0.00 | 0.00 | 0.00 | 23 | 1001.5 |
| 20260504181549 | 72 | 35 | 3.5 | 11.3 | 0.00 | 0.00 | 0.00 | 23 | 1001.6 |
| 20260504181048 | 73 | 5 | 5.2 | 11.3 | 0.00 | 0.00 | 0.00 | 23 | 1001.5 |
| 20260504180547 | 73 | 51 | 4.3 | 11.3 | 0.00 | 0.00 | 0.00 | 24 | 1001.6 |
| 20260504180052 | 73 | 5 | 5.2 | 13.0 | 0.00 | 0.00 | 0.00 | 24 | 1001.7 |
| 20260504175546 | 73 | 25 | 8.7 | 15.6 | 0.00 | 0.00 | 0.00 | 24 | 1001.7 |
| 20260504175047 | 74 | 5 | 7.8 | 15.6 | 0.00 | 0.00 | 0.00 | 23 | 1001.7 |
| 20260504174546 | 75 | 243 | 4.3 | 9.6 | 0.00 | 0.00 | 0.00 | 24 | 1001.7 |
| 20260504174046 | 75 | 227 | 2.6 | 9.6 | 0.00 | 0.00 | 0.00 | 22 | 1001.8 |
| 20260504173545 | 75 | 9 | 2.6 | 7.8 | 0.00 | 0.00 | 0.00 | 23 | 1001.9 |
| 20260504172545 | 74 | 30 | 3.5 | 13.9 | 0.00 | 0.00 | 0.00 | 23 | 1001.9 |
| 20260504172044 | 74 | 28 | 5.2 | 13.9 | 0.00 | 0.00 | 0.00 | 22 | 1002.1 |
| 20260504171544 | 74 | 325 | 8.7 | 13.9 | 0.00 | 0.00 | 0.00 | 22 | 1002.0 |
| 20260504171042 | 74 | 273 | 5.2 | 12.2 | 0.00 | 0.00 | 0.00 | 23 | 1001.9 |
| 20260504170544 | 73 | 288 | 3.5 | 12.2 | 0.00 | 0.00 | 0.00 | 24 | 1001.9 |
| 20260504151028 | 58 | 286 | 0.0 | 1.7 | 0.00 | 0.00 | 0.00 | 46 | 1002.8 |
| 20260504150529 | 57 | 286 | 0.0 | 1.7 | 0.00 | 0.00 | 0.00 | 46 | 1003.0 |
| 20260504141026 | 50 | 337 | 0.0 | 4.3 | 0.00 | 0.00 | 0.00 | 55 | 1003.4 |
| 20260504140526 | 49 | 335 | 1.7 | 4.3 | 0.00 | 0.00 | 0.00 | 56 | 1003.5 |
| 20260504130526 | 43 | 161 | 0.0 | 1.7 | 0.00 | 0.00 | 0.00 | 63 | 1003.6 |
| 20260504110516 | 41 | 326 | 0.0 | 0.9 | 0.00 | 0.00 | 0.00 | 64 | 1003.7 |
| 20260504100508 | 43 | 328 | 0.9 | 3.5 | 0.00 | 0.00 | 0.00 | 60 | 1004.1 |
| 20260504081557 | 45 | 334 | 0.0 | 1.7 | 0.00 | 0.00 | 0.00 | 57 | 1004.7 |
| 20260504081058 | 45 | 334 | 0.0 | 1.7 | 0.00 | 0.00 | 0.00 | 57 | 1004.8 |
| 20260504080559 | 45 | 360 | 0.9 | 1.7 | 0.00 | 0.00 | 0.00 | 56 | 1004.9 |
| 20260504050532 | 56 | 281 | 1.7 | 4.3 | 0.00 | 0.00 | 0.00 | 41 | 1005.9 |
| 20260504045525 | 57 | 300 | 1.7 | 4.3 | 0.00 | 0.00 | 0.00 | 39 | 1005.8 |
| 20260504045025 | 58 | 302 | 2.6 | 5.2 | 0.00 | 0.00 | 0.00 | 39 | 1005.8 |
| 20260504044526 | 58 | 315 | 3.5 | 7.0 | 0.00 | 0.00 | 0.00 | 39 | 1005.9 |
| 20260504044023 | 58 | 290 | 2.6 | 7.0 | 0.00 | 0.00 | 0.00 | 39 | 1006.0 |
| 20260504043522 | 59 | 282 | 1.7 | 4.3 | 0.00 | 0.00 | 0.00 | 39 | 1006.1 |
| 20260504042521 | 60 | 275 | 2.6 | 6.1 | 0.00 | 0.00 | 0.00 | 37 | 1006.0 |
| 20260504042019 | 60 | 273 | 2.6 | 12.2 | 0.00 | 0.00 | 0.00 | 36 | 1005.9 |
| 20260504041519 | 61 | 259 | 6.1 | 12.2 | 0.00 | 0.00 | 0.00 | 35 | 1005.8 |
| 20260504041017 | 62 | 360 | 3.5 | 9.6 | 0.00 | 0.00 | 0.00 | 35 | 1005.8 |
| 20260504040516 | 62 | 308 | 4.3 | 14.8 | 0.00 | 0.00 | 0.00 | 34 | 1005.7 |
| 20260504040015 | 63 | 65 | 11.3 | 14.8 | 0.00 | 0.00 | 0.00 | 33 | 1005.5 |
| 20260504035515 | 63 | 44 | 3.5 | 16.5 | 0.00 | 0.00 | 0.00 | 32 | 1005.6 |
| 20260504035013 | 64 | 71 | 10.4 | 16.5 | 0.00 | 0.00 | 0.00 | 31 | 1005.4 |
| 20260504034520 | 64 | 360 | 4.3 | 14.8 | 0.00 | 0.00 | 0.00 | 30 | 1005.8 |
| 20260504034011 | 64 | 33 | 7.0 | 12.2 | 0.00 | 0.00 | 0.00 | 28 | 1005.5 |
| 20260504033511 | 65 | 55 | 2.6 | 9.6 | 0.00 | 0.00 | 0.00 | 27 | 1005.6 |
| 20260504032511 | 66 | 61 | 4.3 | 12.2 | 0.00 | 0.00 | 0.00 | 26 | 1005.5 |
| 20260504032011 | 66 | 74 | 6.1 | 12.2 | 0.00 | 0.00 | 0.00 | 25 | 1005.4 |
| 20260504031512 | 65 | 65 | 7.0 | 12.2 | 0.00 | 0.00 | 0.00 | 26 | 1005.3 |
| 20260504031010 | 64 | 15 | 4.3 | 9.6 | 0.00 | 0.00 | 0.00 | 27 | 1005.2 |
| 20260504030512 | 64 | 62 | 0.9 | 3.5 | 0.00 | 0.00 | 0.00 | 29 | 1005.2 |
| 20260504030010 | 63 | 65 | 0.9 | 5.2 | 0.00 | 0.00 | 0.00 | 30 | 1005.1 |
| 20260504025512 | 63 | 30 | 1.7 | 5.2 | 0.00 | 0.00 | 0.00 | 31 | 1005.1 |
| 20260504025010 | 63 | 360 | 0.9 | 3.5 | 0.00 | 0.00 | 0.00 | 32 | 1005.0 |
| 20260504024530 | 63 | 26 | 0.0 | 1.7 | 0.00 | 0.00 | 0.00 | 31 | 1004.9 |
| 20260504024009 | 63 | 26 | 0.0 | 7.0 | 0.00 | 0.00 | 0.00 | 31 | 1004.8 |
| 20260504023509 | 63 | 40 | 0.9 | 2.6 | 0.00 | 0.00 | 0.00 | 34 | 1004.9 |
| 20260504022509 | 63 | 181 | 0.9 | 2.6 | 0.00 | 0.00 | 0.00 | 35 | 1004.6 |
| 20260504022014 | 63 | 180 | 0.0 | 1.7 | 0.00 | 0.00 | 0.00 | 34 | 1004.6 |
| 20260504021506 | 64 | 180 | 0.9 | 1.7 | 0.00 | 0.00 | 0.00 | 34 | 1004.4 |
| 20260504021005 | 65 | 180 | 0.9 | 1.7 | 0.00 | 0.00 | 0.00 | 34 | 1004.4 |
| 20260504020503 | 65 | 180 | 0.0 | 1.7 | 0.00 | 0.00 | 0.00 | 31 | 1004.4 |
| 20260504020003 | 66 | 180 | 0.0 | 0.0 | 0.00 | 0.00 | 0.00 | 30 | 1004.4 |
| 20260504015601 | 66 | 180 | 0.0 | 0.0 | 0.00 | 0.00 | 0.00 | 29 | 1004.4 |
| 20260504015100 | 67 | 180 | 0.0 | 1.7 | 0.00 | 0.00 | 0.00 | 30 | 1004.5 |
| 20260504014600 | 67 | 180 | 0.0 | 1.7 | 0.00 | 0.00 | 0.00 | 28 | 1004.4 |
| 20260504014058 | 68 | 180 | 0.0 | 1.7 | 0.00 | 0.00 | 0.00 | 27 | 1004.5 |
| 20260504013557 | 68 | 180 | 0.0 | 1.7 | 0.00 | 0.00 | 0.00 | 28 | 1004.5 |
| 20260504012600 | 69 | 180 | 0.0 | 0.9 | 0.00 | 0.00 | 0.00 | 25 | 1004.4 |
| 20260504012059 | 69 | 180 | 0.0 | 0.0 | 0.00 | 0.00 | 0.00 | 26 | 1004.5 |
| 20260504011556 | 69 | 180 | 0.0 | 0.0 | 0.00 | 0.00 | 0.00 | 28 | 1004.5 |
| 20260504011056 | 70 | 180 | 0.0 | 1.7 | 0.00 | 0.00 | 0.00 | 26 | 1004.5 |
| 20260504010556 | 70 | 180 | 0.0 | 2.6 | 0.00 | 0.00 | 0.00 | 24 | 1004.4 |
| 20260504010056 | 71 | 180 | 0.0 | 2.6 | 0.00 | 0.00 | 0.00 | 26 | 1004.4 |
| 20260504005555 | 71 | 180 | 1.7 | 2.6 | 0.00 | 0.00 | 0.00 | 23 | 1004.4 |
| 20260504005055 | 71 | 180 | 0.9 | 2.6 | 0.00 | 0.00 | 0.00 | 25 | 1004.4 |
| 20260504004608 | 71 | 190 | 0.0 | 0.9 | 0.00 | 0.00 | 0.00 | 24 | 1004.5 |
| 20260504004055 | 72 | 190 | 0.0 | 0.9 | 0.00 | 0.00 | 0.00 | 24 | 1004.6 |
| 20260504003554 | 72 | 190 | 0.0 | 0.0 | 0.00 | 0.00 | 0.00 | 24 | 1004.5 |
| 20260504002553 | 72 | 190 | 0.0 | 0.9 | 0.00 | 0.00 | 0.00 | 23 | 1004.5 |
| 20260504002054 | 72 | 190 | 0.0 | 1.7 | 0.00 | 0.00 | 0.00 | 23 | 1004.5 |
| 20260504001557 | 72 | 190 | 0.0 | 3.5 | 0.00 | 0.00 | 0.00 | 24 | 1004.6 |
| 20260504001055 | 72 | 190 | 0.9 | 3.5 | 0.00 | 0.00 | 0.00 | 21 | 1004.6 |
| 20260504000553 | 72 | 235 | 0.9 | 2.6 | 0.00 | 0.00 | 0.00 | 22 | 1004.7 |
| 20260504000054 | 72 | 236 | 0.9 | 3.5 | 0.00 | 0.00 | 0.00 | 21 | 1004.7 |
| 20260503235552 | 73 | 236 | 0.9 | 6.1 | 0.00 | 0.00 | 0.00 | 20 | 1004.7 |
| 20260503235055 | 73 | 274 | 3.5 | 8.7 | 0.00 | 0.00 | 0.00 | 18 | 1004.6 |
| 20260503234552 | 73 | 265 | 4.3 | 11.3 | 0.00 | 0.00 | 0.00 | 17 | 1004.7 |
| 20260503234053 | 73 | 301 | 3.5 | 14.8 | 0.00 | 0.00 | 0.00 | 19 | 1004.7 |
| 20260503233552 | 73 | 268 | 6.1 | 17.4 | 0.00 | 0.00 | 0.00 | 18 | 1004.8 |
| 20260503232554 | 73 | 288 | 7.8 | 13.9 | 0.00 | 0.00 | 0.00 | 17 | 1004.8 |
| 20260503232051 | 73 | 281 | 8.7 | 13.9 | 0.00 | 0.00 | 0.00 | 17 | 1004.6 |
| 20260503231555 | 74 | 304 | 7.8 | 14.8 | 0.00 | 0.00 | 0.00 | 17 | 1004.5 |
| 20260503231052 | 74 | 315 | 9.6 | 14.8 | 0.00 | 0.00 | 0.00 | 17 | 1004.5 |
| 20260503230550 | 74 | 277 | 3.5 | 13.0 | 0.00 | 0.00 | 0.00 | 19 | 1004.6 |
| 20260503230052 | 74 | 306 | 6.1 | 13.0 | 0.00 | 0.00 | 0.00 | 18 | 1004.5 |
| 20260503225549 | 74 | 294 | 5.2 | 13.0 | 0.00 | 0.00 | 0.00 | 18 | 1004.5 |
| 20260503225048 | 74 | 279 | 4.3 | 9.6 | 0.00 | 0.00 | 0.00 | 20 | 1004.5 |
| 20260503224548 | 74 | 254 | 2.6 | 7.8 | 0.00 | 0.00 | 0.00 | 19 | 1004.6 |
| 20260503224048 | 74 | 266 | 2.6 | 11.3 | 0.00 | 0.00 | 0.00 | 19 | 1004.5 |
| 20260503223548 | 74 | 312 | 4.3 | 11.3 | 0.00 | 0.00 | 0.00 | 18 | 1004.7 |
| 20260503223148 | 74 | 306 | 4.3 | 7.8 | 0.00 | 0.00 | 0.00 | 18 | 1004.6 |
| 20260503222545 | 74 | 296 | 3.5 | 7.0 | 0.00 | 0.00 | 0.00 | 19 | 1004.8 |
| 20260503222047 | 74 | 284 | 3.5 | 10.4 | 0.00 | 0.00 | 0.00 | 18 | 1004.8 |
| 20260503221551 | 74 | 275 | 6.1 | 10.4 | 0.00 | 0.00 | 0.00 | 18 | 1004.9 |
| 20260503221050 | 74 | 283 | 5.2 | 10.4 | 0.00 | 0.00 | 0.00 | 19 | 1004.9 |
| 20260503220544 | 74 | 360 | 3.5 | 10.4 | 0.00 | 0.00 | 0.00 | 18 | 1005.1 |
| 20260503220042 | 74 | 328 | 4.3 | 11.3 | 0.00 | 0.00 | 0.00 | 18 | 1005.3 |
| 20260503215541 | 74 | 290 | 5.2 | 12.2 | 0.00 | 0.00 | 0.00 | 18 | 1005.4 |